| time (UTC) | temp F | wind direction | speed knots | gust knots | rain 1hr in | rain 24hr in | rain mn in | humidity % | barometer mb |
| 20260504081537 | 50 | 93 | 2.6 | 7.0 | 0.10 | 0.25 | 0.25 | 100 | 1009.4 |
| 20260504080537 | 50 | 96 | 3.5 | 6.1 | 0.12 | 0.25 | 0.25 | 100 | 1009.3 |
| 20260504050517 | 51 | 84 | 2.6 | 6.1 | 0.00 | 0.01 | 0.01 | 100 | 1008.6 |
| 20260504045517 | 51 | 94 | 2.6 | 7.8 | 0.00 | 0.01 | 0.01 | 100 | 1008.6 |
| 20260504044517 | 51 | 92 | 2.6 | 7.0 | 0.00 | 0.01 | 0.01 | 100 | 1008.7 |
| 20260504043517 | 51 | 95 | 3.5 | 8.7 | 0.00 | 0.01 | 0.01 | 100 | 1008.8 |
| 20260504042517 | 51 | 99 | 3.5 | 8.7 | 0.00 | 0.01 | 0.01 | 100 | 1008.7 |
| 20260504041517 | 50 | 94 | 3.5 | 8.7 | 0.00 | 0.01 | 0.01 | 100 | 1008.7 |
| 20260504040517 | 50 | 104 | 4.3 | 8.7 | 0.00 | 0.01 | 0.01 | 100 | 1008.7 |
| 20260504035517 | 50 | 90 | 3.5 | 8.7 | 0.00 | 0.01 | 0.01 | 100 | 1008.7 |
| 20260504034517 | 50 | 98 | 3.5 | 7.0 | 0.00 | 0.01 | 0.01 | 100 | 1008.6 |
| 20260504033517 | 50 | 94 | 3.5 | 7.8 | 0.00 | 0.01 | 0.01 | 100 | 1008.5 |
| 20260504032518 | 50 | 89 | 3.5 | 7.8 | 0.00 | 0.01 | 0.01 | 100 | 1008.5 |
| 20260504031517 | 49 | 94 | 3.5 | 8.7 | 0.00 | 0.01 | 0.01 | 100 | 1008.4 |
| 20260504030517 | 49 | 104 | 1.7 | 4.3 | 0.00 | 0.01 | 0.01 | 100 | 1008.3 |
| 20260504025517 | 49 | 92 | 3.5 | 8.7 | 0.00 | 0.01 | 0.01 | 100 | 1008.3 |
| 20260504024517 | 49 | 93 | 3.5 | 8.7 | 0.00 | 0.01 | 0.01 | 100 | 1008.3 |
| 20260504023537 | 49 | 98 | 3.5 | 7.8 | 0.00 | 0.01 | 0.01 | 100 | 1008.3 |
| 20260504022517 | 49 | 94 | 3.5 | 7.0 | 0.00 | 0.01 | 0.01 | 100 | 1008.4 |
| 20260504021517 | 49 | 96 | 4.3 | 8.7 | 0.00 | 0.01 | 0.01 | 100 | 1008.3 |
| 20260504020517 | 49 | 98 | 4.3 | 10.4 | 0.00 | 0.01 | 0.01 | 100 | 1008.3 |
| 20260504015517 | 49 | 89 | 3.5 | 9.6 | 0.00 | 0.01 | 0.01 | 100 | 1008.1 |
| 20260504014557 | 49 | 101 | 3.5 | 7.8 | 0.00 | 0.01 | 0.01 | 100 | 1008.0 |
| 20260504013517 | 49 | 97 | 4.3 | 9.6 | 0.00 | 0.01 | 0.01 | 100 | 1008.0 |
| 20260504012537 | 49 | 97 | 4.3 | 8.7 | 0.00 | 0.01 | 0.01 | 100 | 1008.3 |
| 20260504011517 | 49 | 99 | 4.3 | 10.4 | 0.00 | 0.01 | 0.01 | 100 | 1008.3 |
| 20260504010517 | 49 | 86 | 2.6 | 7.0 | 0.00 | 0.01 | 0.01 | 100 | 1008.4 |
| 20260504005517 | 49 | 101 | 4.3 | 10.4 | 0.00 | 0.01 | 0.01 | 100 | 1008.5 |
| 20260504004517 | 49 | 94 | 3.5 | 9.6 | 0.00 | 0.01 | 0.01 | 100 | 1008.6 |
| 20260504003517 | 49 | 92 | 3.5 | 9.6 | 0.00 | 0.01 | 0.01 | 100 | 1008.5 |
| 20260504002518 | 48 | 80 | 4.3 | 8.7 | 0.00 | 0.01 | 0.01 | 100 | 1008.6 |
| 20260504001518 | 48 | 78 | 3.5 | 8.7 | 0.00 | 0.01 | 0.01 | 100 | 1008.7 |
| 20260504000519 | 48 | 86 | 5.2 | 11.3 | 0.00 | 0.01 | 0.01 | 100 | 1008.9 |
| 20260503235557 | 48 | 86 | 4.3 | 10.4 | 0.00 | 0.01 | 0.01 | 100 | 1008.9 |
| 20260503234517 | 48 | 92 | 4.3 | 9.6 | 0.00 | 0.01 | 0.01 | 100 | 1008.9 |
| 20260503233537 | 48 | 99 | 3.5 | 12.2 | 0.00 | 0.01 | 0.01 | 100 | 1008.9 |
| 20260503232517 | 48 | 73 | 3.5 | 8.7 | 0.01 | 0.01 | 0.01 | 100 | 1009.0 |
| 20260503231517 | 48 | 80 | 4.3 | 8.7 | 0.01 | 0.01 | 0.01 | 100 | 1009.1 |
| 20260503230518 | 48 | 81 | 1.7 | 3.5 | 0.01 | 0.01 | 0.01 | 100 | 1009.2 |
| 20260503225518 | 48 | 86 | 2.6 | 6.1 | 0.01 | 0.01 | 0.01 | 100 | 1009.4 |
| 20260503223517 | 48 | 93 | 3.5 | 8.7 | 0.01 | 0.01 | 0.01 | 100 | 1009.8 |
| 20260503222537 | 48 | 95 | 2.6 | 7.0 | 0.00 | 0.00 | 0.00 | 100 | 1009.9 |
| 20260503221517 | 48 | 93 | 3.5 | 8.7 | 0.00 | 0.00 | 0.00 | 100 | 1010.0 |
| 20260503220518 | 48 | 62 | 2.6 | 7.0 | 0.00 | 0.00 | 0.00 | 100 | 1010.1 |
| 20260503215517 | 48 | 89 | 3.5 | 8.7 | 0.00 | 0.00 | 0.00 | 100 | 1010.2 |
| 20260503214517 | 48 | 96 | 3.5 | 7.8 | 0.00 | 0.00 | 0.00 | 100 | 1010.4 |
| 20260503213517 | 48 | 95 | 3.5 | 7.0 | 0.00 | 0.00 | 0.00 | 100 | 1010.5 |
| 20260503212518 | 48 | 94 | 2.6 | 9.6 | 0.00 | 0.00 | 0.00 | 100 | 1010.5 |
| 20260503211537 | 48 | 93 | 3.5 | 9.6 | 0.00 | 0.00 | 0.00 | 100 | 1010.4 |
| 20260503210517 | 48 | 73 | 3.5 | 8.7 | 0.00 | 0.00 | 0.00 | 100 | 1010.3 |
| 20260503205517 | 48 | 81 | 3.5 | 7.8 | 0.00 | 0.00 | 0.00 | 100 | 1010.7 |
| 20260503204517 | 48 | 78 | 3.5 | 8.7 | 0.00 | 0.00 | 0.00 | 100 | 1010.9 |
| 20260503203517 | 48 | 85 | 2.6 | 7.8 | 0.00 | 0.00 | 0.00 | 100 | 1011.0 |
| 20260503202517 | 48 | 91 | 4.3 | 8.7 | 0.00 | 0.00 | 0.00 | 100 | 1011.2 |
| 20260503201517 | 49 | 95 | 3.5 | 11.3 | 0.00 | 0.00 | 0.00 | 100 | 1011.4 |
| 20260503200517 | 49 | 101 | 3.5 | 9.6 | 0.00 | 0.00 | 0.00 | 100 | 1011.6 |
| 20260503195518 | 49 | 89 | 3.5 | 9.6 | 0.00 | 0.00 | 0.00 | 100 | 1011.4 |
| 20260503194517 | 49 | 84 | 3.5 | 8.7 | 0.00 | 0.00 | 0.00 | 100 | 1011.7 |
| 20260503193517 | 49 | 100 | 2.6 | 6.1 | 0.00 | 0.00 | 0.00 | 100 | 1012.0 |
| 20260503192517 | 49 | 91 | 3.5 | 7.0 | 0.00 | 0.00 | 0.00 | 100 | 1012.2 |
| 20260503191517 | 49 | 90 | 3.5 | 7.8 | 0.00 | 0.00 | 0.00 | 100 | 1012.3 |
| 20260503190518 | 49 | 95 | 2.6 | 6.1 | 0.00 | 0.00 | 0.00 | 100 | 1012.2 |
| 20260503185515 | 49 | 93 | 2.6 | 7.8 | 0.00 | 0.00 | 0.00 | 100 | 1012.5 |
| 20260503183518 | 49 | 110 | 3.5 | 7.8 | 0.00 | 0.00 | 0.00 | 100 | 1012.9 |
| 20260503182518 | 49 | 96 | 1.7 | 4.3 | 0.00 | 0.00 | 0.00 | 100 | 1013.0 |
| 20260503181517 | 49 | 100 | 2.6 | 6.1 | 0.00 | 0.00 | 0.00 | 100 | 1013.1 |
| 20260503180517 | 49 | 104 | 1.7 | 3.5 | 0.00 | 0.00 | 0.00 | 100 | 1013.2 |
| 20260503175517 | 49 | 95 | 1.7 | 5.2 | 0.00 | 0.00 | 0.00 | 100 | 1013.2 |
| 20260503174558 | 49 | 107 | 1.7 | 5.2 | 0.00 | 0.00 | 0.00 | 100 | 1013.3 |
| 20260503173517 | 50 | 103 | 2.6 | 5.2 | 0.00 | 0.00 | 0.00 | 100 | 1013.4 |
| 20260503172516 | 50 | 87 | 2.6 | 5.2 | 0.00 | 0.00 | 0.00 | 100 | 1013.5 |
| 20260503171516 | 50 | 89 | 2.6 | 7.8 | 0.00 | 0.00 | 0.00 | 100 | 1013.5 |
| 20260503170536 | 50 | 105 | 2.6 | 5.2 | 0.00 | 0.00 | 0.00 | 100 | 1013.6 |
| 20260503150536 | 51 | 117 | 1.7 | 4.3 | 0.00 | 0.00 | 0.00 | 100 | 1014.1 |
| 20260503130516 | 54 | 98 | 3.5 | 5.2 | 0.00 | 0.00 | 0.00 | 83 | 1014.9 |
| 20260503110516 | 55 | 97 | 3.5 | 7.0 | 0.00 | 0.00 | 0.00 | 84 | 1016.0 |